Stations météo

réclame
Mon MeteoGroup
Ile Rousse, France (7753): Température de l'air & dewpoint: 10.08.2018 21:00:00 - 16.08.2018 21:00:00 (CEST)Ile Rousse, France (7753): Vitesse du vent & gusts: 10.08.2018 21:00:00 - 16.08.2018 21:00:00 (CEST)Ile Rousse, France (7753): Direction du vent: 10.08.2018 21:00:00 - 16.08.2018 21:00:00 (CEST)Ile Rousse, France (7753): reduced air pressure: 10.08.2018 21:00:00 - 16.08.2018 21:00:00 (CEST)Ile Rousse, France (7753): visibility: 10.08.2018 21:00:00 - 16.08.2018 21:00:00 (CEST)Ile Rousse, France (7753): Quantités de précipitations: 10.08.2018 21:00:00 - 16.08.2018 21:00:00 (CEST)
Date & Time tt [°C] td [°C] ff [km/h] ff [knt] fx [km/h] fx [knt] dd ppp [hPa] vv [km] rr [mm]
16.08.2018 21:00:00 25,1 19,7 11 6 16 9 NE 1013,3 - 0,0
16.08.2018 20:00:00 25,8 19,4 9 5 15 8 NE 1012,9 40 -
16.08.2018 19:00:00 - - - - - - - - - -
16.08.2018 18:00:00 - - - - - - - - - -
16.08.2018 17:00:00 26,9 20,0 29 16 38 21 NNE 1013,1 - 0,0
16.08.2018 16:00:00 - - - - - - - - - -
16.08.2018 15:00:00 - - - - - - - - - -
16.08.2018 14:00:00 27,4 17,8 32 17 47 25 NE 1014,0 - 0,0
16.08.2018 13:00:00 28,0 16,3 36 19 48 26 NE 1014,2 - 0,0
16.08.2018 12:00:00 28,2 15,8 37 20 55 30 NE 1014,5 - 0,0
16.08.2018 11:00:00 28,6 15,2 31 17 48 26 ENE 1014,4 20 -
16.08.2018 10:00:00 26,6 15,9 28 15 38 20 NE 1014,4 - 0,0
16.08.2018 09:00:00 25,7 16,0 21 11 27 14 ENE 1014,5 - 0,0
16.08.2018 08:00:00 24,8 16,2 16 9 29 15 ENE 1014,5 - 0,0
16.08.2018 07:00:00 23,6 16,1 23 13 30 16 E 1014,4 - 0,0
16.08.2018 06:00:00 - - - - - - - - - -
16.08.2018 05:00:00 - - - - - - - - - -
16.08.2018 04:00:00 - - - - - - - - - -
16.08.2018 03:00:00 24,3 14,7 12 7 21 11 ESE 1015,0 - 0,0
16.08.2018 02:00:00 24,3 15,2 14 8 23 12 E 1015,1 - 0,0
16.08.2018 01:00:00 23,9 15,9 17 9 20 11 E 1015,1 - 0,0
16.08.2018 00:00:00 24,4 15,9 13 7 22 12 E 1015,0 - 0,0
15.08.2018 23:00:00 24,4 16,1 21 11 26 14 E 1014,7 - 0,0
15.08.2018 22:00:00 24,2 16,7 16 9 23 12 E 1014,7 - 0,0
15.08.2018 21:00:00 25,1 17,6 20 11 34 18 E 1014,2 - 0,0
15.08.2018 20:00:00 26,2 17,6 21 11 34 18 NE 1013,9 - 0,0
15.08.2018 19:00:00 26,3 16,2 25 13 36 19 NE 1013,7 - 0,0
15.08.2018 18:00:00 25,9 17,5 29 15 41 22 NNE 1013,8 - 0,0
15.08.2018 17:00:00 26,6 16,2 33 18 45 24 NE 1013,8 - 0,0
15.08.2018 16:00:00 26,3 17,6 27 15 37 20 NNE 1014,0 - 0,0
15.08.2018 15:00:00 26,0 18,7 23 13 34 18 NNE 1014,2 - 0,0
15.08.2018 14:00:00 26,2 18,6 22 12 31 17 NE 1014,4 - 0,0
15.08.2018 13:00:00 25,9 19,5 21 11 26 14 NNE 1014,5 - 0,0
15.08.2018 12:00:00 25,7 18,1 14 7 21 12 NNE 1014,1 - 0,0
15.08.2018 11:00:00 25,4 17,1 11 6 16 9 ENE 1013,9 - 0,0
15.08.2018 10:00:00 - - - - - - - - - -
15.08.2018 09:00:00 - - - - - - - - - -
15.08.2018 08:00:00 20,7 19,4 6 3 67 36 SSE 1013,5 15 8,1
15.08.2018 07:00:00 23,1 17,3 9 5 17 9 S 1013,0 - 0,0
15.08.2018 06:00:00 22,9 17,1 6 4 16 8 ESE 1012,6 - 0,0
15.08.2018 05:00:00 22,7 16,5 11 6 23 12 SE 1012,7 - 0,0
15.08.2018 04:00:00 22,8 17,7 9 5 17 9 N 1012,5 - 0,0
15.08.2018 03:00:00 22,8 15,6 6 3 22 12 E 1012,0 - 0,0
15.08.2018 02:00:00 22,9 16,4 14 8 22 12 E 1012,2 - 0,0
15.08.2018 01:00:00 22,7 16,0 16 9 21 11 E 1012,5 - 0,0
15.08.2018 00:00:00 23,2 15,3 8 4 29 15 SE 1011,7 - 0,0
14.08.2018 23:00:00 23,5 15,3 16 9 49 26 SW 1011,9 - 0,0
14.08.2018 22:00:00 23,5 15,8 23 12 54 29 SW 1010,9 - 0,0
14.08.2018 21:00:00 23,9 15,9 35 19 65 35 SW 1010,8 - 0,0
14.08.2018 20:00:00 24,1 17,3 41 22 82 44 WSW 1010,0 - 0,0
14.08.2018 19:00:00 25,5 17,9 45 25 77 41 WSW 1009,3 - 0,0
14.08.2018 18:00:00 27,6 15,9 40 21 77 41 WSW 1009,7 - 0,0
14.08.2018 17:00:00 27,4 17,6 41 22 73 40 WSW 1009,5 35 0,0
14.08.2018 16:00:00 28,7 13,4 45 24 74 40 WSW 1009,5 - 0,0
14.08.2018 15:00:00 27,5 17,4 41 22 72 39 WSW 1009,7 - 0,0
14.08.2018 14:00:00 - - - - - - - - - -
14.08.2018 13:00:00 26,3 17,6 29 16 49 26 W 1010,6 - 0,0
14.08.2018 12:00:00 24,5 17,2 33 18 72 39 SSW 1011,3 - 0,0
14.08.2018 11:00:00 25,7 18,6 26 14 44 24 WSW 1012,1 15 0,0
14.08.2018 10:00:00 25,4 17,3 13 7 31 17 SSE 1011,5 - 0,0
14.08.2018 09:00:00 24,3 18,2 6 4 11 6 E 1011,4 - 0,0
14.08.2018 08:00:00 23,9 15,4 5 3 23 13 SE 1011,3 18 0,0
14.08.2018 07:00:00 - - - - - - - - - -
14.08.2018 06:00:00 - - - - - - - - - -
14.08.2018 05:00:00 25,5 14,9 15 8 35 19 SSW 1010,6 12 -
14.08.2018 04:00:00 24,6 16,6 18 10 32 17 SW 1011,2 - 0,0
14.08.2018 03:00:00 24,4 16,4 23 13 42 23 SW 1010,9 - 0,0
14.08.2018 02:00:00 24,5 16,7 23 12 35 19 SW 1011,5 - 0,0
14.08.2018 01:00:00 24,3 15,5 11 6 19 10 SW 1012,1 - 0,0
14.08.2018 00:00:00 24,2 17,0 9 5 14 7 SSE 1012,3 - 0,0
13.08.2018 23:00:00 24,1 18,3 6 4 15 8 SW 1012,5 - 0,0
13.08.2018 22:00:00 24,1 18,3 10 5 13 7 SSW 1012,6 - 0,0
13.08.2018 21:00:00 24,5 17,7 7 4 13 7 WSW 1012,2 - 0,0
13.08.2018 20:00:00 26,0 17,6 8 5 13 7 W 1011,5 20 0,0
13.08.2018 19:00:00 25,9 18,3 5 3 14 8 NW 1011,8 - 0,0
13.08.2018 18:00:00 27,3 18,9 8 4 21 12 NW 1012,2 - 0,0
13.08.2018 17:00:00 27,0 19,4 12 7 26 14 NNE 1012,4 30 0,0
13.08.2018 16:00:00 26,7 19,6 12 7 26 14 NNE 1012,6 - 0,0
13.08.2018 15:00:00 26,7 19,1 15 8 24 13 NE 1013,0 - 0,0
13.08.2018 14:00:00 26,6 17,7 5 3 44 24 WSW 1014,2 20 0,0
13.08.2018 13:00:00 25,2 18,9 38 21 80 43 NW 1015,2 - 0,0
13.08.2018 12:00:00 26,7 20,8 35 19 59 32 W 1015,2 - 0,0
13.08.2018 11:00:00 26,7 19,8 22 12 34 18 W 1014,3 25 0,0
13.08.2018 10:00:00 25,5 19,6 13 7 24 13 W 1013,9 - 0,0
13.08.2018 09:00:00 25,3 19,4 7 4 12 7 N 1013,5 - 0,0
13.08.2018 08:00:00 24,3 18,9 4 2 8 4 E 1013,5 - 0,0
13.08.2018 07:00:00 23,2 18,9 4 2 6 3 E 1013,4 - 0,0
13.08.2018 06:00:00 23,4 19,1 3 1 8 4 E 1013,5 - 0,0
13.08.2018 05:00:00 23,6 19,3 4 2 8 4 SE 1014,0 - 0,0
13.08.2018 04:00:00 23,5 19,2 8 4 14 8 SE 1014,3 - 0,0
13.08.2018 03:00:00 23,8 19,7 8 4 12 7 S 1014,3 - 0,0
13.08.2018 02:00:00 23,8 19,5 9 5 16 9 SSE 1014,8 - 0,0
13.08.2018 01:00:00 23,6 19,7 13 7 23 12 SW 1015,3 - 0,0
13.08.2018 00:00:00 24,0 19,7 16 9 24 13 SW 1015,6 - 0,0
12.08.2018 23:00:00 24,1 19,8 16 9 25 14 WSW 1015,8 - 0,0
12.08.2018 22:00:00 24,2 20,1 15 8 24 13 WSW 1015,5 - 0,0
12.08.2018 21:00:00 24,7 20,0 17 9 28 15 WSW 1015,2 - 0,0
12.08.2018 20:00:00 26,1 20,4 16 9 35 19 W 1014,7 - 0,0
12.08.2018 19:00:00 27,4 20,7 20 11 35 19 W 1014,7 - 0,0
12.08.2018 18:00:00 28,2 21,5 20 11 37 20 W 1015,1 - 0,0
12.08.2018 17:00:00 28,7 19,6 24 13 41 22 W 1015,5 - 0,0
12.08.2018 16:00:00 28,2 20,7 26 14 41 22 W 1015,8 - 0,0
12.08.2018 15:00:00 28,3 20,3 26 14 39 21 W 1016,5 - 0,0
12.08.2018 14:00:00 28,4 20,2 23 12 38 21 W 1016,7 - 0,0
12.08.2018 13:00:00 28,5 19,7 21 11 32 17 W 1017,0 - 0,0
12.08.2018 12:00:00 26,8 18,1 9 5 20 11 NNW 1017,4 - 0,0
12.08.2018 11:00:00 25,7 17,4 10 6 17 9 NW 1017,5 20 0,0
12.08.2018 10:00:00 25,6 17,3 8 5 16 9 N 1017,3 - 0,0
12.08.2018 09:00:00 24,9 16,6 5 3 12 6 NW 1017,1 - 0,0
12.08.2018 08:00:00 24,6 15,2 4 2 8 5 NE 1016,9 20 0,0
12.08.2018 07:00:00 23,7 14,7 5 3 13 7 SSE 1016,8 - 0,0
12.08.2018 06:00:00 23,4 14,7 9 5 12 7 SE 1016,6 - 0,0
12.08.2018 05:00:00 23,6 15,4 8 4 9 5 ESE 1016,4 - 0,0
12.08.2018 04:00:00 24,1 14,5 4 2 9 5 W 1016,7 - 0,0
12.08.2018 03:00:00 24,3 15,0 8 5 16 9 WSW 1016,9 - 0,0
12.08.2018 02:00:00 25,1 12,7 6 4 23 12 SSW 1017,1 - 0,0
12.08.2018 01:00:00 25,3 13,2 18 10 28 15 S 1017,5 - 0,0
12.08.2018 00:00:00 24,9 13,4 10 5 39 21 SW 1017,8 - 0,0
11.08.2018 23:00:00 25,4 14,8 21 11 46 25 SW 1017,6 - 0,0
11.08.2018 22:00:00 25,8 12,6 28 15 51 27 WSW 1017,0 - 0,0
11.08.2018 21:00:00 26,6 14,0 34 19 48 26 SW 1016,3 - 0,0
11.08.2018 20:00:00 27,3 15,3 33 18 64 34 WSW 1016,2 - 0,0
11.08.2018 19:00:00 28,8 13,1 41 22 65 35 WSW 1016,0 - 0,0
11.08.2018 18:00:00 29,9 11,4 37 20 67 36 WSW 1016,2 - 0,0
11.08.2018 17:00:00 30,4 12,3 41 22 69 38 WSW 1016,2 - 0,0
11.08.2018 16:00:00 31,1 9,3 41 22 68 37 WSW 1016,4 - 0,0
11.08.2018 15:00:00 31,0 11,9 40 22 69 37 WSW 1016,8 - 0,0
11.08.2018 14:00:00 30,4 12,8 39 21 69 37 WSW 1017,1 - 0,0
11.08.2018 13:00:00 30,3 14,0 38 21 65 35 WSW 1017,5 - 0,0
11.08.2018 12:00:00 29,2 16,0 36 19 61 33 WSW 1018,0 - 0,0
11.08.2018 11:00:00 28,7 15,6 34 18 59 32 WSW 1018,1 23 0,0
11.08.2018 10:00:00 28,1 14,7 30 16 51 27 WSW 1018,4 - 0,0
11.08.2018 09:00:00 26,9 15,3 27 14 45 24 WSW 1018,3 - 0,0
11.08.2018 08:00:00 25,5 15,5 20 11 37 20 SW 1018,6 18 0,0
11.08.2018 07:00:00 25,0 15,0 22 12 33 18 SW 1018,3 - 0,0
11.08.2018 06:00:00 24,4 15,6 18 10 38 20 WSW 1018,3 - 0,0
11.08.2018 05:00:00 24,8 14,6 14 8 29 16 SW 1018,6 - 0,0
11.08.2018 04:00:00 25,3 14,7 21 12 29 16 SW 1018,9 - 0,0
11.08.2018 03:00:00 25,5 14,9 17 9 28 15 SW 1019,3 - 0,0
11.08.2018 02:00:00 25,9 15,0 20 11 30 16 SW 1019,5 - 0,0
11.08.2018 01:00:00 25,9 15,9 20 11 49 27 SW 1019,8 - 0,0
11.08.2018 00:00:00 26,3 16,5 26 14 44 24 WSW 1019,6 - 0,0
10.08.2018 23:00:00 25,6 17,3 25 14 40 22 SW 1019,5 - 0,0
10.08.2018 22:00:00 25,5 19,9 29 16 51 28 SW 1019,6 - 0,0
10.08.2018 21:00:00 25,8 20,4 29 15 54 29 SW 1019,2 - 0,0

tt = Température de l'air
td = dewpoint
ff = Vitesse du vent
fx = gusts
dd = Direction du vent
ppp = reduced air pressure
vv = visibility
rr = Quantités de précipitations

stations d'obs. à proximité